SCP
0 0 0 0 0 0 0 0 0 0 0 0 0 0 0 0 0 0 0 0 0 0 0 0 0 0 0 0 0 0 0 0 0 0 0 0 0 0 0 0 1 3 4 4
0 0 0 0 0 0 0 0 0 0 0 0 0 0 0 0 0 0 0 0 0 0 0 0 0 0 0 0 0 0 0 0 0 0 0 0 0 0 0 0 0 2 3 3
0 0 0 0 0 0 0 0 0 0 0 0 0 0 0 0 0 0 0 0 0 0 0 0 0 0 0 0 0 0 0 0 0 0 0 0 0 0 0 0 0 0 3 5
0 0 0 0 0 0 0 0 0 0 0 0 0 0 0 0 0 0 0 0 0 0 0 0 0 0 0 0 0 0 0 0 0 0 0 0 0 0 0 0 0 0 3 5
0 0 0 0 0 0 0 0 0 0 0 0 0 0 0 0 0 0 0 0 0 0 0 0 0 0 0 0 0 0 0 0 0 0 0 0 0 0 0 0 0 0 0 4
0 0 0 0 0 0 0 0 0 0 0 0 0 0 0 0 0 0 0 0 0 0 0 0 0 0 0 0 0 0 0 0 0 0 0 0 0 0 0 0 0 0 0 1
0 0 0 0 0 0 0 0 0 0 0 0 0 0 0 0 0 0 0 0 0 0 0 0 0 0 0 0 0 0 0 0 0 0 0 0 0 0 0 0 0 -0 -0 0
0 0 0 0 0 0 0 0 0 0 0 0 0 0 0 0 0 0 0 0 0 0 0 0 0 0 0 0 -0 -0 -0 0 0 0 0 0 0 0 0 0 0 0 -0 0
0 0 0 0 0 0 0 0 0 -0 -0 -0 0 0 -0 0 0 0 0 0 0 0 0 0 0 0 0 0 -0 -0 -0 0 0 0 0 0 0 0 0 0 0 0 0 0
0 0 0 0 0 0 0 0 0 0 0 0 0 0 0 0 0 0 0 0 0 0 0 0 0 0 0 -0 -0 -0 -0 -0 0 0 0 0 0 0 0 0 0 0 0 0
0 0 0 0 0 0 0 0 0 0 0 0 0 0 0 0 0 0 0 0 0 0 0 0 0 0 0 -0 -0 -0 -0 -0 0 0 0 0 0 0 0 0 0 0 0 0
0 0 0 0 0 0 0 0 0 0 0 0 0 -0 0 0 -0 -0 0 0 0 0 0 0 0 0 0 0 0 0 0 0 0 0 0 0 0 0 0 0 0 0 0 0
0 0 0 0 0 0 0 0 0 0 0 0 0 0 -0 -0 -0 0 0 0 0 0 0 0 0 0 0 0 0 0 0 0 0 0 0 0 0 0 0 0 0 0 0 0
0 0 0 0 0 0 0 0 0 0 0 0 0 0 -0 0 0 0 0 0 0 0 0 0 0 0 0 0 0 0 0 0 0 0 0 0 0 0 0 0 0 0 0 0
0 0 0 0 0 0 0 0 0 0 0 0 0 0 0 0 0 0 0 0 0 0 0 0 0 0 0 0 0 0 0 0 0 0 0 0 0 0 0 0 0 0 0 0
0 0 0 0 0 0 0 0 0 0 0 0 0 0 0 0 0 0 0 0 0 0 0 0 0 0 0 0 0 0 0 0 0 0 0 0 0 0 0 0 0 0 0 0
0 0 0 0 0 0 0 0 0 0 0 0 0 0 0 0 0 0 0 0 0 0 0 0 0 0 0 0 0 0 0 0 0 0 0 0 0 0 0 0 0 0 0 0
0 0 0 0 0 0 0 0 0 0 0 0 0 0 0 0 0 0 0 0 0 0 0 0 0 0 0 0 0 0 0 0 0 0 0 0 0 0 0 0 0 0 0 0
0 0 0 0 0 0 0 0 0 0 0 0 0 0 0 0 0 0 0 0 0 0 0 0 0 0 0 0 0 0 0 0 0 0 0 0 0 0 0 0 0 0 0 0
0 0 0 0 0 0 0 0 0 0 0 0 0 0 0 0 0 0 0 0 0 0 -0 -0 0 -0 -0 0 0 0 0 0 0 0 -0 -0 -0 -0 0 0 0 0 0 0
0 0 0 0 0 0 0 0 0 0 0 0 0 0 0 0 0 0 0 -0 0 0 -0 0 -0 -0 -0 -0 0 0 -0 -0 -0 0 -0 -0 -0 -0 -0 -0 0 0 0 0
0 0 0 0 0 0 0 0 0 0 0 0 0 0 0 0 -0 -0 0 0 -0 -0 -0 -0 -0 -0 -0 -0 -0 -0 -0 0 0 0 0 0 -0 0 0 -0 -0 -0 -0 -0
0 0 0 0 0 0 0 0 0 0 0 -0 0 -0 -0 -0 0 0 0 0 0 -0 -0 -0 -0 -0 -0 -0 -0 -0 -0 0 0 0 0 -0 -0 0 -0 -0 0 0 0 -0
0 0 0 0 0 0 0 0 -0 -0 -0 -0 -0 -0 -0 -0 0 0 0 0 0 0 0 -0 -0 -0 -0 -0 -0 -0 -0 -0 0 0 -0 -0 -0 -0 -0 -0 -0 -0 0 -0
0 0 0 0 0 0 0 0 -0 -0 -0 -0 -0 0 0 -0 -0 -0 -0 0 0 0 0 0 0 0 -0 -0 -0 -0 -0 -0 0 -0 -0 0 -0 -0 -0 -0 -0 -0 -0 -0
0 0 0 0 -0 0 -0 -0 -0 0 0 -0 -0 -0 0 0 0 0 0 0 0 0 0 0 -0 -0 -0 -0 -0 -0 0 0 0 0 0 0 0 0 0 0 -0 0 0 0
Wind_Speed_500mb
40 30 36 39 41 51 53 55 60 56 54 58 48 45 41 38 51 32 43 43 35 32 36 28 17 11 5 7 10 14 20 24 28 30 30 31 37 37 43 57 67 62 73 76
36 47 44 45 45 47 48 53 50 49 52 48 40 39 56 38 41 46 47 49 40 33 31 25 17 8 6 11 19 21 24 28 31 32 37 48 57 59 58 55 56 68 80 76
43 46 43 47 42 43 51 44 44 48 46 53 38 34 48 58 47 54 55 51 51 42 37 24 14 7 9 13 22 26 30 33 33 35 40 43 49 59 59 68 76 67 77 93
41 46 42 51 43 31 36 40 46 42 27 23 20 16 42 52 42 47 47 35 48 40 28 21 12 9 15 20 21 25 31 36 35 40 44 49 55 61 59 54 55 67 67 84
47 32 26 40 44 33 35 24 25 32 36 29 45 20 30 49 51 39 23 41 46 39 25 19 12 16 18 22 27 31 36 36 41 43 48 53 59 64 70 67 80 67 67 90
32 29 18 28 29 38 15 11 20 25 22 19 45 29 25 25 24 31 34 54 41 31 29 15 18 22 26 27 30 38 43 45 43 45 49 54 60 63 71 72 75 89 80 73
33 42 40 26 29 9 21 1 7 11 14 21 15 24 34 18 37 29 44 43 37 34 29 17 24 28 31 35 38 46 49 51 48 50 50 53 59 60 65 70 76 79 94 81
19 17 41 31 39 22 36 22 10 10 7 12 7 9 8 9 31 62 52 21 35 39 29 23 25 30 33 37 43 52 54 55 55 55 54 51 53 53 54 61 67 75 95 79
11 18 6 26 37 29 11 21 41 27 24 11 12 11 9 11 39 35 33 23 29 38 29 26 27 31 34 38 43 50 56 57 55 55 56 51 48 51 49 48 52 69 73 85
7 13 5 30 31 38 31 13 11 12 8 8 11 22 2 24 30 29 32 28 29 27 30 29 29 30 32 37 39 44 53 62 60 56 54 57 51 50 49 46 38 42 50 53
15 12 6 10 24 32 31 29 9 8 15 7 8 3 25 24 29 18 22 27 33 34 28 29 31 33 36 39 43 50 55 64 66 61 56 54 53 46 50 45 40 38 44 55
39 8 12 24 21 9 13 16 10 7 5 3 3 3 18 13 13 10 17 26 29 32 34 34 34 37 40 42 47 52 57 61 66 64 59 57 52 47 46 43 42 32 31 48
17 12 15 6 15 17 20 22 21 16 13 12 5 5 19 22 16 35 40 33 34 31 30 32 36 37 39 43 45 52 57 59 63 60 60 59 53 46 47 39 33 35 29 52
9 15 19 12 10 11 23 24 16 11 3 12 12 14 14 5 21 29 31 27 30 28 29 32 34 35 39 41 43 49 54 55 59 60 60 59 57 53 47 42 32 32 27 28
6 10 18 17 3 6 7 10 13 16 17 15 17 16 25 27 25 26 24 24 26 27 29 31 33 36 36 38 46 47 51 54 54 58 61 63 59 54 51 48 36 23 27 29
7 4 14 20 18 12 15 14 16 18 20 21 19 10 28 31 32 31 33 29 26 25 26 26 29 31 33 39 43 43 48 50 53 56 60 61 60 60 57 55 52 40 26 27
13 9 6 19 15 5 14 13 15 14 13 16 12 21 17 23 23 26 21 21 19 18 21 23 25 31 36 39 39 41 44 46 52 57 60 62 64 62 62 60 55 52 46 30
9 11 7 2 9 8 18 15 9 8 22 22 18 19 20 22 23 21 21 15 15 17 22 24 26 33 42 37 35 40 42 48 52 57 60 63 66 66 65 64 65 60 57 51
12 11 7 6 14 12 16 12 5 3 10 15 13 13 19 28 30 23 17 19 19 19 22 27 25 28 39 45 44 45 49 52 56 60 60 62 60 63 65 68 71 72 69 66
14 14 8 10 11 12 13 10 16 9 8 14 13 11 12 18 8 10 13 17 19 22 23 23 26 29 36 43 53 58 57 57 60 61 60 53 55 57 62 65 66 69 72 73
13 14 16 14 11 7 2 8 1 7 7 16 11 15 3 7 18 24 19 20 23 24 24 25 29 35 36 38 43 49 59 58 56 57 57 55 55 56 56 57 62 65 69 70
15 10 11 12 15 9 16 7 5 10 16 19 15 22 33 33 28 27 22 22 25 28 28 29 35 39 38 38 40 50 49 51 50 51 53 58 63 60 60 58 58 61 65 68
4 3 4 9 7 11 18 24 14 12 22 19 20 20 23 26 26 23 24 21 20 27 30 30 31 29 31 35 39 44 45 42 41 46 50 51 51 59 62 62 62 62 62 64
8 12 7 11 11 12 17 19 19 22 25 24 23 24 24 27 25 25 22 21 23 24 26 24 24 28 33 34 37 41 39 37 39 41 41 47 54 54 55 61 64 64 65 60
4 14 17 9 15 20 13 18 24 28 26 28 26 25 27 27 25 23 22 22 21 22 21 20 22 26 30 32 34 36 39 35 35 40 41 41 40 42 50 55 58 63 67 63
7 6 7 2 36 6 33 26 27 29 27 27 29 28 24 23 24 22 22 18 17 18 18 22 26 27 29 33 36 38 40 35 37 36 39 40 38 39 39 37 45 50 53 55
Wind_Direction_500mb
226 234 241 251 250 260 268 270 280 281 287 298 293 312 252 231 249 211 213 229 219 204 137 133 121 112 92 330 334 320 322 309 301 297 283 276 263 267 272 247 245 240 242 245
247 245 251 256 267 276 278 273 275 272 285 282 313 306 294 259 262 220 223 225 210 187 135 124 107 73 18 359 325 338 334 324 315 308 289 276 271 258 242 232 236 242 237 245
246 264 277 249 254 265 270 267 277 280 301 302 302 280 275 280 262 258 232 232 198 146 130 120 95 47 7 6 352 342 330 326 322 314 303 291 279 272 274 256 241 236 240 236
263 278 271 274 238 251 273 259 270 280 284 271 321 284 270 278 268 237 225 204 125 117 109 95 74 33 26 8 345 333 327 329 327 311 302 296 293 286 268 247 249 255 250 236
247 265 271 265 272 277 266 342 298 276 272 284 267 263 269 252 254 251 147 124 107 99 96 84 61 34 26 6 353 334 323 327 322 314 310 308 298 289 285 272 249 243 241 243
269 291 261 265 278 269 151 308 301 276 259 247 253 237 277 286 249 157 138 107 116 119 93 69 47 34 19 0 350 330 337 338 333 327 319 310 302 294 286 278 268 245 245 255
252 237 237 247 270 196 167 160 247 224 215 248 244 236 249 317 352 148 100 134 127 105 89 53 33 25 12 2 350 342 345 340 333 325 323 318 312 298 287 281 275 257 243 253
274 258 225 209 225 212 201 194 222 247 249 277 180 249 224 34 86 70 93 81 100 91 81 58 38 23 10 1 353 344 346 337 327 332 330 328 321 310 297 285 276 270 249 248
261 250 273 190 214 196 197 215 234 275 286 281 205 210 201 177 104 106 112 112 82 77 62 47 35 23 11 2 357 349 340 339 334 332 335 336 332 327 309 293 285 272 261 249
256 274 245 227 199 205 208 175 207 210 263 256 237 204 74 175 141 130 125 100 76 64 49 37 29 21 11 2 353 351 344 345 343 338 339 342 341 334 322 306 293 275 259 250
203 238 305 146 217 230 207 222 195 274 243 265 318 78 38 49 56 81 93 66 56 44 35 26 24 22 12 1 356 348 349 349 350 347 345 343 343 338 327 306 291 254 248 246
213 235 239 234 234 259 242 231 191 247 310 227 357 349 114 109 163 142 97 70 61 47 30 20 16 14 8 1 359 350 352 356 357 352 353 348 340 346 339 315 311 284 249 248
146 234 238 262 254 222 218 224 221 212 218 269 299 301 169 227 157 57 67 63 58 37 24 17 16 11 2 358 357 351 357 2 2 2 1 358 351 343 349 339 326 311 279 246
173 234 224 246 305 316 216 235 236 231 221 306 297 76 144 314 33 59 57 53 53 34 22 14 11 4 2 359 356 358 359 3 6 11 13 10 6 3 356 345 339 351 318 283
192 243 246 249 223 312 312 280 242 254 269 260 292 317 56 37 51 53 55 52 40 27 16 11 5 1 358 354 4 2 2 7 10 16 20 20 17 15 13 4 357 355 336 332
172 245 243 250 245 256 274 266 269 279 283 287 283 287 72 55 55 45 38 45 38 22 16 9 8 3 358 2 5 2 6 12 18 22 24 24 22 22 19 17 15 16 21 355
178 211 212 242 214 271 274 279 278 299 316 322 269 54 46 64 58 44 45 47 43 30 22 17 11 8 7 9 11 10 12 21 27 30 31 31 31 29 29 30 29 25 30 23
211 190 191 239 135 220 91 64 27 3 53 25 32 35 70 102 93 68 48 58 50 37 30 25 23 22 21 19 26 23 29 35 35 37 37 37 39 37 36 39 40 39 37 43
219 199 214 196 221 119 157 71 87 60 81 26 1 6 100 128 115 80 63 64 55 48 42 30 32 37 33 37 37 37 39 41 40 40 41 41 40 45 43 45 47 49 49 49
210 226 231 200 251 230 103 58 105 134 171 39 22 339 314 177 234 94 77 69 61 54 47 39 38 41 46 36 39 38 37 38 40 41 40 41 44 46 51 50 49 50 52 55
183 203 216 224 234 100 220 11 50 233 75 72 34 18 282 103 75 121 96 78 69 59 52 46 44 40 38 37 35 33 29 32 35 40 43 41 46 49 48 51 54 54 56 56
190 195 206 244 223 195 9 227 284 91 98 96 80 81 90 102 104 100 94 87 78 63 51 48 43 40 34 32 37 40 32 22 28 32 37 42 42 47 50 51 52 55 53 53
165 55 71 12 55 91 62 88 100 98 112 108 110 107 111 109 102 100 90 87 88 75 59 50 47 42 39 36 40 41 40 21 29 33 31 31 35 39 41 43 45 46 47 50
143 173 88 187 125 112 103 98 107 114 115 114 114 114 122 115 110 103 98 86 82 79 65 54 51 44 37 41 44 44 39 40 25 34 42 30 29 25 32 33 35 36 37 38
112 149 127 85 116 122 131 132 127 119 117 113 110 109 111 111 106 102 92 85 81 78 73 72 64 51 44 39 47 46 44 39 41 32 32 39 38 37 23 24 26 30 31 31
85 121 189 327 163 63 146 146 140 131 128 122 119 115 112 115 112 108 95 87 83 85 80 70 63 57 48 43 43 49 43 42 40 41 27 28 32 31 33 37 22 23 24 19
Wind_Speed_850mb
40 30 36 39 41 51 53 55 60 56 54 58 48 45 41 38 51 32 43 43 35 32 36 28 17 11 5 7 10 14 20 24 28 30 30 31 37 37 43 57 67 62 73 76
36 47 44 45 45 47 48 53 50 49 52 48 40 39 56 38 41 46 47 49 40 33 31 25 17 8 6 11 19 21 24 28 31 32 37 48 57 59 58 55 56 68 80 76
43 46 43 47 42 43 51 44 44 48 46 53 38 34 48 58 47 54 55 51 51 42 37 24 14 7 9 13 22 26 30 33 33 35 40 43 49 59 59 68 76 67 77 93
41 46 42 51 43 31 36 40 46 42 27 23 20 16 42 52 42 47 47 35 48 40 28 21 12 9 15 20 21 25 31 36 35 40 44 49 55 61 59 54 55 67 67 84
47 32 26 40 44 33 35 24 25 32 36 29 45 20 30 49 51 39 23 41 46 39 25 19 12 16 18 22 27 31 36 36 41 43 48 53 59 64 70 67 80 67 67 90
32 29 18 28 29 38 15 11 20 25 22 19 45 29 25 25 24 31 34 54 41 31 29 15 18 22 26 27 30 38 43 45 43 45 49 54 60 63 71 72 75 89 80 73
33 42 40 26 29 9 21 1 7 11 14 21 15 24 34 18 37 29 44 43 37 34 29 17 24 28 31 35 38 46 49 51 48 50 50 53 59 60 65 70 76 79 94 81
19 17 41 31 39 22 36 22 10 10 7 12 7 9 8 9 31 62 52 21 35 39 29 23 25 30 33 37 43 52 54 55 55 55 54 51 53 53 54 61 67 75 95 79
11 18 6 26 37 29 11 21 41 27 24 11 12 11 9 11 39 35 33 23 29 38 29 26 27 31 34 38 43 50 56 57 55 55 56 51 48 51 49 48 52 69 73 85
7 13 5 30 31 38 31 13 11 12 8 8 11 22 2 24 30 29 32 28 29 27 30 29 29 30 32 37 39 44 53 62 60 56 54 57 51 50 49 46 38 42 50 53
15 12 6 10 24 32 31 29 9 8 15 7 8 3 25 24 29 18 22 27 33 34 28 29 31 33 36 39 43 50 55 64 66 61 56 54 53 46 50 45 40 38 44 55
39 8 12 24 21 9 13 16 10 7 5 3 3 3 18 13 13 10 17 26 29 32 34 34 34 37 40 42 47 52 57 61 66 64 59 57 52 47 46 43 42 32 31 48
17 12 15 6 15 17 20 22 21 16 13 12 5 5 19 22 16 35 40 33 34 31 30 32 36 37 39 43 45 52 57 59 63 60 60 59 53 46 47 39 33 35 29 52
9 15 19 12 10 11 23 24 16 11 3 12 12 14 14 5 21 29 31 27 30 28 29 32 34 35 39 41 43 49 54 55 59 60 60 59 57 53 47 42 32 32 27 28
6 10 18 17 3 6 7 10 13 16 17 15 17 16 25 27 25 26 24 24 26 27 29 31 33 36 36 38 46 47 51 54 54 58 61 63 59 54 51 48 36 23 27 29
7 4 14 20 18 12 15 14 16 18 20 21 19 10 28 31 32 31 33 29 26 25 26 26 29 31 33 39 43 43 48 50 53 56 60 61 60 60 57 55 52 40 26 27
13 9 6 19 15 5 14 13 15 14 13 16 12 21 17 23 23 26 21 21 19 18 21 23 25 31 36 39 39 41 44 46 52 57 60 62 64 62 62 60 55 52 46 30
9 11 7 2 9 8 18 15 9 8 22 22 18 19 20 22 23 21 21 15 15 17 22 24 26 33 42 37 35 40 42 48 52 57 60 63 66 66 65 64 65 60 57 51
12 11 7 6 14 12 16 12 5 3 10 15 13 13 19 28 30 23 17 19 19 19 22 27 25 28 39 45 44 45 49 52 56 60 60 62 60 63 65 68 71 72 69 66
14 14 8 10 11 12 13 10 16 9 8 14 13 11 12 18 8 10 13 17 19 22 23 23 26 29 36 43 53 58 57 57 60 61 60 53 55 57 62 65 66 69 72 73
13 14 16 14 11 7 2 8 1 7 7 16 11 15 3 7 18 24 19 20 23 24 24 25 29 35 36 38 43 49 59 58 56 57 57 55 55 56 56 57 62 65 69 70
15 10 11 12 15 9 16 7 5 10 16 19 15 22 33 33 28 27 22 22 25 28 28 29 35 39 38 38 40 50 49 51 50 51 53 58 63 60 60 58 58 61 65 68
4 3 4 9 7 11 18 24 14 12 22 19 20 20 23 26 26 23 24 21 20 27 30 30 31 29 31 35 39 44 45 42 41 46 50 51 51 59 62 62 62 62 62 64
8 12 7 11 11 12 17 19 19 22 25 24 23 24 24 27 25 25 22 21 23 24 26 24 24 28 33 34 37 41 39 37 39 41 41 47 54 54 55 61 64 64 65 60
4 14 17 9 15 20 13 18 24 28 26 28 26 25 27 27 25 23 22 22 21 22 21 20 22 26 30 32 34 36 39 35 35 40 41 41 40 42 50 55 58 63 67 63
7 6 7 2 36 6 33 26 27 29 27 27 29 28 24 23 24 22 22 18 17 18 18 22 26 27 29 33 36 38 40 35 37 36 39 40 38 39 39 37 45 50 53 55
Wind_Direction_850mb
226 234 241 251 250 260 268 270 280 281 287 298 293 312 252 231 249 211 213 229 219 204 137 133 121 112 92 330 334 320 322 309 301 297 283 276 263 267 272 247 245 240 242 245
247 245 251 256 267 276 278 273 275 272 285 282 313 306 294 259 262 220 223 225 210 187 135 124 107 73 18 359 325 338 334 324 315 308 289 276 271 258 242 232 236 242 237 245
246 264 277 249 254 265 270 267 277 280 301 302 302 280 275 280 262 258 232 232 198 146 130 120 95 47 7 6 352 342 330 326 322 314 303 291 279 272 274 256 241 236 240 236
263 278 271 274 238 251 273 259 270 280 284 271 321 284 270 278 268 237 225 204 125 117 109 95 74 33 26 8 345 333 327 329 327 311 302 296 293 286 268 247 249 255 250 236
247 265 271 265 272 277 266 342 298 276 272 284 267 263 269 252 254 251 147 124 107 99 96 84 61 34 26 6 353 334 323 327 322 314 310 308 298 289 285 272 249 243 241 243
269 291 261 265 278 269 151 308 301 276 259 247 253 237 277 286 249 157 138 107 116 119 93 69 47 34 19 0 350 330 337 338 333 327 319 310 302 294 286 278 268 245 245 255
252 237 237 247 270 196 167 160 247 224 215 248 244 236 249 317 352 148 100 134 127 105 89 53 33 25 12 2 350 342 345 340 333 325 323 318 312 298 287 281 275 257 243 253
274 258 225 209 225 212 201 194 222 247 249 277 180 249 224 34 86 70 93 81 100 91 81 58 38 23 10 1 353 344 346 337 327 332 330 328 321 310 297 285 276 270 249 248
261 250 273 190 214 196 197 215 234 275 286 281 205 210 201 177 104 106 112 112 82 77 62 47 35 23 11 2 357 349 340 339 334 332 335 336 332 327 309 293 285 272 261 249
256 274 245 227 199 205 208 175 207 210 263 256 237 204 74 175 141 130 125 100 76 64 49 37 29 21 11 2 353 351 344 345 343 338 339 342 341 334 322 306 293 275 259 250
203 238 305 146 217 230 207 222 195 274 243 265 318 78 38 49 56 81 93 66 56 44 35 26 24 22 12 1 356 348 349 349 350 347 345 343 343 338 327 306 291 254 248 246
213 235 239 234 234 259 242 231 191 247 310 227 357 349 114 109 163 142 97 70 61 47 30 20 16 14 8 1 359 350 352 356 357 352 353 348 340 346 339 315 311 284 249 248
146 234 238 262 254 222 218 224 221 212 218 269 299 301 169 227 157 57 67 63 58 37 24 17 16 11 2 358 357 351 357 2 2 2 1 358 351 343 349 339 326 311 279 246
173 234 224 246 305 316 216 235 236 231 221 306 297 76 144 314 33 59 57 53 53 34 22 14 11 4 2 359 356 358 359 3 6 11 13 10 6 3 356 345 339 351 318 283
192 243 246 249 223 312 312 280 242 254 269 260 292 317 56 37 51 53 55 52 40 27 16 11 5 1 358 354 4 2 2 7 10 16 20 20 17 15 13 4 357 355 336 332
172 245 243 250 245 256 274 266 269 279 283 287 283 287 72 55 55 45 38 45 38 22 16 9 8 3 358 2 5 2 6 12 18 22 24 24 22 22 19 17 15 16 21 355
178 211 212 242 214 271 274 279 278 299 316 322 269 54 46 64 58 44 45 47 43 30 22 17 11 8 7 9 11 10 12 21 27 30 31 31 31 29 29 30 29 25 30 23
211 190 191 239 135 220 91 64 27 3 53 25 32 35 70 102 93 68 48 58 50 37 30 25 23 22 21 19 26 23 29 35 35 37 37 37 39 37 36 39 40 39 37 43
219 199 214 196 221 119 157 71 87 60 81 26 1 6 100 128 115 80 63 64 55 48 42 30 32 37 33 37 37 37 39 41 40 40 41 41 40 45 43 45 47 49 49 49
210 226 231 200 251 230 103 58 105 134 171 39 22 339 314 177 234 94 77 69 61 54 47 39 38 41 46 36 39 38 37 38 40 41 40 41 44 46 51 50 49 50 52 55
183 203 216 224 234 100 220 11 50 233 75 72 34 18 282 103 75 121 96 78 69 59 52 46 44 40 38 37 35 33 29 32 35 40 43 41 46 49 48 51 54 54 56 56
190 195 206 244 223 195 9 227 284 91 98 96 80 81 90 102 104 100 94 87 78 63 51 48 43 40 34 32 37 40 32 22 28 32 37 42 42 47 50 51 52 55 53 53
165 55 71 12 55 91 62 88 100 98 112 108 110 107 111 109 102 100 90 87 88 75 59 50 47 42 39 36 40 41 40 21 29 33 31 31 35 39 41 43 45 46 47 50
143 173 88 187 125 112 103 98 107 114 115 114 114 114 122 115 110 103 98 86 82 79 65 54 51 44 37 41 44 44 39 40 25 34 42 30 29 25 32 33 35 36 37 38
112 149 127 85 116 122 131 132 127 119 117 113 110 109 111 111 106 102 92 85 81 78 73 72 64 51 44 39 47 46 44 39 41 32 32 39 38 37 23 24 26 30 31 31
85 121 189 327 163 63 146 146 140 131 128 122 119 115 112 115 112 108 95 87 83 85 80 70 63 57 48 43 43 49 43 42 40 41 27 28 32 31 33 37 22 23 24 19